Time,TemperatureF,DewpointF,PressureIn,WindDirection,WindDirectionDegrees,WindSpeedMPH,WindSpeedGustMPH,Humidity,HourlyPrecipIn,Conditions,Clouds,dailyrainin,SoftwareType,DateUTC
2013-05-23 00:11:00,44.0,43.0,-100.00,East,95,1.0,1.0,97,-99.99,,,-99.99,,2013-05-23 08:11:00,
2013-05-23 00:21:00,44.0,43.0,-100.00,ESE,110,1.0,1.0,97,-99.99,,,-99.99,,2013-05-23 08:21:00,
2013-05-23 00:31:00,44.0,43.0,-100.00,ESE,110,1.0,1.0,97,-99.99,,,-99.99,,2013-05-23 08:31:00,
2013-05-23 00:42:00,44.0,43.0,-100.00,ESE,110,1.0,1.0,97,-99.99,,,-99.99,,2013-05-23 08:42:00,
2013-05-23 00:52:00,43.0,42.0,-100.00,ESE,110,0.0,2.0,97,-99.99,,,-99.99,,2013-05-23 08:52:00,
2013-05-23 01:01:00,43.0,42.0,-100.00,ESE,110,0.0,2.0,97,-99.99,,,-99.99,,2013-05-23 09:01:00,
2013-05-23 01:11:00,43.0,42.0,-100.00,ESE,110,0.0,2.0,97,-99.99,,,-99.99,,2013-05-23 09:11:00,
2013-05-23 01:21:00,43.0,42.0,-100.00,ESE,120,1.0,1.0,98,-99.99,,,-99.99,,2013-05-23 09:21:00,
2013-05-23 01:32:00,43.0,42.0,-100.00,ESE,120,1.0,1.0,98,-99.99,,,-99.99,,2013-05-23 09:32:00,
2013-05-23 01:42:00,43.0,42.0,-100.00,ESE,120,1.0,1.0,98,-99.99,,,-99.99,,2013-05-23 09:42:00,
2013-05-23 01:53:00,42.0,42.0,-100.00,ESE,120,1.0,1.0,98,-99.99,,,-99.99,,2013-05-23 09:53:00,
2013-05-23 02:02:00,42.0,42.0,-100.00,ESE,120,1.0,1.0,98,-99.99,,,-99.99,,2013-05-23 10:02:00,
2013-05-23 02:12:00,42.0,42.0,-100.00,ESE,120,1.0,1.0,98,-99.99,,,-99.99,,2013-05-23 10:12:00,
2013-05-23 02:22:00,42.0,42.0,-100.00,East,85,1.0,1.0,98,-99.99,,,-99.99,,2013-05-23 10:22:00,
2013-05-23 02:32:00,42.0,42.0,-100.00,East,85,1.0,1.0,98,-99.99,,,-99.99,,2013-05-23 10:32:00,
2013-05-23 02:42:00,42.0,42.0,-100.00,East,85,1.0,1.0,98,-99.99,,,-99.99,,2013-05-23 10:42:00,
2013-05-23 02:52:00,42.0,41.0,-100.00,ESE,105,1.0,1.0,98,-99.99,,,-99.99,,2013-05-23 10:52:00,
2013-05-23 03:02:00,42.0,41.0,-100.00,ESE,105,1.0,1.0,98,-99.99,,,-99.99,,2013-05-23 11:02:00,
2013-05-23 03:11:00,42.0,41.0,-100.00,ESE,105,1.0,1.0,98,-99.99,,,-99.99,,2013-05-23 11:11:00,
2013-05-23 03:21:00,42.0,41.0,-100.00,ESE,105,1.0,1.0,99,-99.99,,,-99.99,,2013-05-23 11:21:00,
2013-05-23 03:32:00,42.0,41.0,-100.00,ESE,105,1.0,1.0,99,-99.99,,,-99.99,,2013-05-23 11:32:00,
2013-05-23 03:42:00,42.0,41.0,-100.00,ESE,105,1.0,1.0,99,-99.99,,,-99.99,,2013-05-23 11:42:00,
2013-05-23 03:52:00,41.0,41.0,-100.00,ESE,120,1.0,1.0,99,-99.99,,,-99.99,,2013-05-23 11:52:00,
2013-05-23 04:01:00,41.0,41.0,-100.00,ESE,120,1.0,1.0,99,-99.99,,,-99.99,,2013-05-23 12:01:00,
2013-05-23 04:11:00,41.0,41.0,-100.00,ESE,120,1.0,1.0,99,-99.99,,,-99.99,,2013-05-23 12:11:00,
2013-05-23 04:21:00,41.0,41.0,-100.00,East,95,1.0,1.0,99,-99.99,,,-99.99,,2013-05-23 12:21:00,
2013-05-23 04:32:00,41.0,41.0,-100.00,East,95,1.0,1.0,99,-99.99,,,-99.99,,2013-05-23 12:32:00,
2013-05-23 04:42:00,41.0,41.0,-100.00,East,95,1.0,1.0,99,-99.99,,,-99.99,,2013-05-23 12:42:00,
2013-05-23 04:52:00,41.0,41.0,-100.00,ESE,110,1.0,1.0,99,-99.99,,,-99.99,,2013-05-23 12:52:00,
2013-05-23 05:01:00,41.0,41.0,-100.00,ESE,110,1.0,1.0,99,-99.99,,,-99.99,,2013-05-23 13:01:00,
2013-05-23 05:11:00,41.0,41.0,-100.00,ESE,110,1.0,1.0,99,-99.99,,,-99.99,,2013-05-23 13:11:00,
2013-05-23 05:21:00,41.0,41.0,-100.00,East,85,1.0,2.0,99,-99.99,,,-99.99,,2013-05-23 13:21:00,
2013-05-23 05:31:00,41.0,41.0,-100.00,East,85,1.0,2.0,99,-99.99,,,-99.99,,2013-05-23 13:31:00,
2013-05-23 05:42:00,41.0,41.0,-100.00,East,85,1.0,2.0,99,-99.99,,,-99.99,,2013-05-23 13:42:00,
2013-05-23 05:52:00,41.0,41.0,-100.00,ESE,115,1.0,2.0,99,-99.99,,,-99.99,,2013-05-23 13:52:00,
2013-05-23 06:01:00,41.0,41.0,-100.00,ESE,115,1.0,2.0,99,-99.99,,,-99.99,,2013-05-23 14:01:00,
2013-05-23 06:11:00,41.0,41.0,-100.00,ESE,115,1.0,2.0,99,-99.99,,,-99.99,,2013-05-23 14:11:00,
2013-05-23 06:21:00,41.0,41.0,-100.00,East,90,2.0,2.0,99,-99.99,,,-99.99,,2013-05-23 14:21:00,
2013-05-23 06:32:00,41.0,41.0,-100.00,East,90,2.0,2.0,99,-99.99,,,-99.99,,2013-05-23 14:32:00,
2013-05-23 06:42:00,41.0,41.0,-100.00,East,90,2.0,2.0,99,-99.99,,,-99.99,,2013-05-23 14:42:00,
2013-05-23 06:52:00,41.0,41.0,-100.00,ENE,75,1.0,2.0,99,-99.99,,,-99.99,,2013-05-23 14:52:00,
2013-05-23 07:01:00,41.0,41.0,-100.00,ENE,75,1.0,2.0,99,-99.99,,,-99.99,,2013-05-23 15:01:00,
2013-05-23 07:11:00,41.0,41.0,-100.00,ENE,75,1.0,2.0,99,-99.99,,,-99.99,,2013-05-23 15:11:00,
2013-05-23 07:21:00,43.0,42.0,-100.00,ENE,60,0.0,1.0,99,-99.99,,,-99.99,,2013-05-23 15:21:00,
2013-05-23 07:32:00,43.0,42.0,-100.00,ENE,60,0.0,1.0,99,-99.99,,,-99.99,,2013-05-23 15:32:00,
2013-05-23 07:43:00,43.0,42.0,-100.00,ENE,60,0.0,1.0,99,-99.99,,,-99.99,,2013-05-23 15:43:00,
2013-05-23 07:53:00,43.0,43.0,-100.00,NE,50,2.0,4.0,99,-99.99,,,-99.99,,2013-05-23 15:53:00,
2013-05-23 08:03:00,43.0,43.0,-100.00,NE,50,2.0,4.0,99,-99.99,,,-99.99,,2013-05-23 16:03:00,
2013-05-23 08:12:00,43.0,43.0,-100.00,NE,50,2.0,4.0,99,-99.99,,,-99.99,,2013-05-23 16:12:00,
2013-05-23 08:22:00,44.0,44.0,-100.00,NE,50,1.0,4.0,99,-99.99,,,-99.99,,2013-05-23 16:22:00,
2013-05-23 08:33:00,44.0,44.0,-100.00,NE,50,1.0,4.0,99,-99.99,,,-99.99,,2013-05-23 16:33:00,
2013-05-23 08:42:00,44.0,44.0,-100.00,NE,50,1.0,4.0,99,-99.99,,,-99.99,,2013-05-23 16:42:00,
2013-05-23 08:52:00,45.0,45.0,-100.00,North,355,2.0,4.0,99,-99.99,,,-99.99,,2013-05-23 16:52:00,
2013-05-23 09:02:00,45.0,45.0,-100.00,North,355,2.0,4.0,99,-99.99,,,-99.99,,2013-05-23 17:02:00,
2013-05-23 09:11:00,45.0,45.0,-100.00,North,355,2.0,4.0,99,-99.99,,,-99.99,,2013-05-23 17:11:00,
2013-05-23 09:22:00,45.0,45.0,-100.00,NW,320,4.0,7.0,99,-99.99,,,-99.99,,2013-05-23 17:22:00,
2013-05-23 09:33:00,45.0,45.0,-100.00,NW,320,4.0,7.0,99,-99.99,,,-99.99,,2013-05-23 17:33:00,
2013-05-23 09:43:00,45.0,45.0,-100.00,NW,320,4.0,7.0,99,-99.99,,,-99.99,,2013-05-23 17:43:00,
2013-05-23 09:52:00,45.0,44.0,-100.00,WNW,300,3.0,5.0,99,-99.99,,,-99.99,,2013-05-23 17:52:00,
2013-05-23 10:01:00,45.0,44.0,-100.00,WNW,300,3.0,5.0,99,-99.99,,,-99.99,,2013-05-23 18:01:00,
2013-05-23 10:11:00,45.0,44.0,-100.00,WNW,300,3.0,5.0,99,-99.99,,,-99.99,,2013-05-23 18:11:00,
2013-05-23 10:21:00,44.0,44.0,-100.00,NW,320,4.0,7.0,99,-99.99,,,-99.99,,2013-05-23 18:21:00,
2013-05-23 10:32:00,44.0,44.0,-100.00,NW,320,4.0,7.0,99,-99.99,,,-99.99,,2013-05-23 18:32:00,
2013-05-23 10:42:00,44.0,44.0,-100.00,NW,320,4.0,7.0,99,-99.99,,,-99.99,,2013-05-23 18:42:00,
2013-05-23 10:52:00,45.0,45.0,-100.00,NNW,335,6.0,9.0,98,-99.99,,,-99.99,,2013-05-23 18:52:00,
2013-05-23 11:01:00,45.0,45.0,-100.00,NNW,335,6.0,9.0,98,-99.99,,,-99.99,,2013-05-23 19:01:00,
2013-05-23 11:11:00,45.0,45.0,-100.00,NNW,335,6.0,9.0,98,-99.99,,,-99.99,,2013-05-23 19:11:00,
2013-05-23 11:21:00,46.0,44.0,-100.00,NW,325,5.0,12.0,95,-99.99,,,-99.99,,2013-05-23 19:21:00,
2013-05-23 11:31:00,46.0,44.0,-100.00,NW,325,5.0,12.0,95,-99.99,,,-99.99,,2013-05-23 19:31:00,
2013-05-23 11:42:00,46.0,44.0,-100.00,NW,325,5.0,12.0,95,-99.99,,,-99.99,,2013-05-23 19:42:00,
2013-05-23 11:52:00,46.0,43.0,-100.00,NW,320,6.0,9.0,90,-99.99,,,-99.99,,2013-05-23 19:52:00,
2013-05-23 12:02:00,46.0,43.0,-100.00,NW,320,6.0,9.0,90,-99.99,,,-99.99,,2013-05-23 20:02:00,
2013-05-23 12:11:00,46.0,43.0,-100.00,NW,320,6.0,9.0,90,-99.99,,,-99.99,,2013-05-23 20:11:00,
2013-05-23 12:21:00,48.0,44.0,-100.00,NNW,335,5.0,9.0,86,-99.99,,,-99.99,,2013-05-23 20:21:00,
2013-05-23 12:31:00,48.0,44.0,-100.00,NNW,335,5.0,9.0,86,-99.99,,,-99.99,,2013-05-23 20:31:00,
2013-05-23 12:42:00,48.0,44.0,-100.00,NNW,335,5.0,9.0,86,-99.99,,,-99.99,,2013-05-23 20:42:00,
2013-05-23 12:52:00,47.0,43.0,-100.00,NNW,335,5.0,10.0,84,-99.99,,,-99.99,,2013-05-23 20:52:00,
2013-05-23 13:01:00,47.0,43.0,-100.00,NNW,335,5.0,10.0,84,-99.99,,,-99.99,,2013-05-23 21:01:00,
2013-05-23 13:11:00,47.0,43.0,-100.00,NNW,335,5.0,10.0,84,-99.99,,,-99.99,,2013-05-23 21:11:00,
2013-05-23 13:21:00,47.0,42.0,-100.00,NW,310,7.0,11.0,83,-99.99,,,-99.99,,2013-05-23 21:21:00,
2013-05-23 13:32:00,47.0,42.0,-100.00,NW,310,7.0,11.0,83,-99.99,,,-99.99,,2013-05-23 21:32:00,
2013-05-23 13:43:00,47.0,42.0,-100.00,NW,310,7.0,11.0,83,-99.99,,,-99.99,,2013-05-23 21:43:00,
2013-05-23 13:53:00,47.0,42.0,-100.00,West,280,7.0,10.0,85,-99.99,,,-99.99,,2013-05-23 21:53:00,
2013-05-23 14:02:00,47.0,42.0,-100.00,West,280,7.0,10.0,85,-99.99,,,-99.99,,2013-05-23 22:02:00,
2013-05-23 14:12:00,47.0,42.0,-100.00,West,280,7.0,10.0,85,-99.99,,,-99.99,,2013-05-23 22:12:00,
2013-05-23 14:22:00,48.0,43.0,-100.00,NW,310,5.0,11.0,82,-99.99,,,-99.99,,2013-05-23 22:22:00,
2013-05-23 14:33:00,48.0,43.0,-100.00,NW,310,5.0,11.0,82,-99.99,,,-99.99,,2013-05-23 22:33:00,
2013-05-23 14:42:00,48.0,43.0,-100.00,NW,310,5.0,11.0,82,-99.99,,,-99.99,,2013-05-23 22:42:00,
2013-05-23 14:52:00,47.0,40.0,-100.00,NW,310,4.0,9.0,75,-99.99,,,-99.99,,2013-05-23 22:52:00,
2013-05-23 15:01:00,47.0,40.0,-100.00,NW,310,4.0,9.0,75,-99.99,,,-99.99,,2013-05-23 23:01:00,
2013-05-23 15:11:00,47.0,40.0,-100.00,NW,310,4.0,9.0,75,-99.99,,,-99.99,,2013-05-23 23:11:00,
2013-05-23 15:21:00,48.0,39.0,-100.00,NW,315,7.0,10.0,71,-99.99,,,-99.99,,2013-05-23 23:21:00,
2013-05-23 15:31:00,48.0,39.0,-100.00,NW,315,7.0,10.0,71,-99.99,,,-99.99,,2013-05-23 23:31:00,
2013-05-23 15:42:00,48.0,39.0,-100.00,NW,315,7.0,10.0,71,-99.99,,,-99.99,,2013-05-23 23:42:00,
2013-05-23 15:52:00,50.0,39.0,-100.00,NW,315,4.0,9.0,67,-99.99,,,-99.99,,2013-05-23 23:52:00,
2013-05-23 16:01:00,50.0,39.0,-100.00,NW,315,4.0,9.0,67,-99.99,,,-99.99,,2013-05-24 00:01:00,
2013-05-23 16:11:00,50.0,39.0,-100.00,NW,315,4.0,9.0,67,-99.99,,,-99.99,,2013-05-24 00:11:00,
2013-05-23 16:21:00,50.0,38.0,-100.00,NW,320,5.0,9.0,64,-99.99,,,-99.99,,2013-05-24 00:21:00,
2013-05-23 16:31:00,50.0,38.0,-100.00,NW,320,5.0,9.0,64,-99.99,,,-99.99,,2013-05-24 00:31:00,
2013-05-23 16:42:00,50.0,38.0,-100.00,NW,320,5.0,9.0,64,-99.99,,,-99.99,,2013-05-24 00:42:00,
2013-05-23 16:52:00,50.0,38.0,-100.00,NW,305,6.0,10.0,65,-99.99,,,-99.99,,2013-05-24 00:52:00,
2013-05-23 17:01:00,50.0,38.0,-100.00,NW,305,6.0,10.0,65,-99.99,,,-99.99,,2013-05-24 01:01:00,
2013-05-23 17:12:00,50.0,38.0,-100.00,NW,305,6.0,10.0,65,-99.99,,,-99.99,,2013-05-24 01:12:00,
2013-05-23 17:21:00,49.0,39.0,-100.00,WNW,300,6.0,11.0,68,-99.99,,,-99.99,,2013-05-24 01:21:00,
2013-05-23 17:31:00,49.0,39.0,-100.00,WNW,300,6.0,11.0,68,-99.99,,,-99.99,,2013-05-24 01:31:00,
2013-05-23 17:42:00,49.0,39.0,-100.00,WNW,300,6.0,11.0,68,-99.99,,,-99.99,,2013-05-24 01:42:00,
2013-05-23 17:52:00,48.0,39.0,-100.00,NW,305,7.0,10.0,70,-99.99,,,-99.99,,2013-05-24 01:52:00,
2013-05-23 18:01:00,48.0,39.0,-100.00,NW,305,7.0,10.0,70,-99.99,,,-99.99,,2013-05-24 02:01:00,
2013-05-23 18:11:00,48.0,39.0,-100.00,NW,305,7.0,10.0,70,-99.99,,,-99.99,,2013-05-24 02:11:00,
2013-05-23 18:21:00,50.0,40.0,-100.00,NW,325,3.0,7.0,67,-99.99,,,-99.99,,2013-05-24 02:21:00,
2013-05-23 18:32:00,50.0,40.0,-100.00,NW,325,3.0,7.0,67,-99.99,,,-99.99,,2013-05-24 02:32:00,
2013-05-23 18:42:00,50.0,40.0,-100.00,NW,325,3.0,7.0,67,-99.99,,,-99.99,,2013-05-24 02:42:00,
2013-05-23 18:52:00,50.0,40.0,-100.00,NW,310,5.0,9.0,67,-99.99,,,-99.99,,2013-05-24 02:52:00,
2013-05-23 19:02:00,50.0,40.0,-100.00,NW,310,5.0,9.0,67,-99.99,,,-99.99,,2013-05-24 03:02:00,
2013-05-23 19:11:00,50.0,40.0,-100.00,NW,310,5.0,9.0,67,-99.99,,,-99.99,,2013-05-24 03:11:00,
2013-05-23 19:21:00,50.0,39.0,-100.00,WNW,290,4.0,7.0,66,-99.99,,,-99.99,,2013-05-24 03:21:00,
2013-05-23 19:33:00,50.0,39.0,-100.00,WNW,290,4.0,7.0,66,-99.99,,,-99.99,,2013-05-24 03:33:00,
2013-05-23 19:42:00,50.0,39.0,-100.00,WNW,290,4.0,7.0,66,-99.99,,,-99.99,,2013-05-24 03:42:00,
2013-05-23 19:53:00,51.0,40.0,-100.00,WNW,300,3.0,6.0,67,-99.99,,,-99.99,,2013-05-24 03:53:00,
2013-05-23 20:03:00,51.0,40.0,-100.00,WNW,300,3.0,6.0,67,-99.99,,,-99.99,,2013-05-24 04:03:00,
2013-05-23 20:12:00,51.0,40.0,-100.00,WNW,300,3.0,6.0,67,-99.99,,,-99.99,,2013-05-24 04:12:00,
2013-05-23 20:22:00,51.0,39.0,-100.00,WNW,285,4.0,7.0,65,-99.99,,,-99.99,,2013-05-24 04:22:00,
2013-05-23 20:33:00,51.0,39.0,-100.00,WNW,285,4.0,7.0,65,-99.99,,,-99.99,,2013-05-24 04:33:00,
2013-05-23 20:42:00,51.0,39.0,-100.00,WNW,285,4.0,7.0,65,-99.99,,,-99.99,,2013-05-24 04:42:00,
2013-05-23 20:53:00,48.0,39.0,-100.00,West,265,3.0,7.0,71,-99.99,,,-99.99,,2013-05-24 04:53:00,
2013-05-23 21:02:00,48.0,39.0,-100.00,West,265,3.0,7.0,71,-99.99,,,-99.99,,2013-05-24 05:02:00,
2013-05-23 21:12:00,48.0,39.0,-100.00,West,265,3.0,7.0,71,-99.99,,,-99.99,,2013-05-24 05:12:00,
2013-05-23 21:22:00,48.0,40.0,-100.00,WSW,255,3.0,5.0,73,-99.99,,,-99.99,,2013-05-24 05:22:00,
2013-05-23 21:32:00,48.0,40.0,-100.00,WSW,255,3.0,5.0,73,-99.99,,,-99.99,,2013-05-24 05:32:00,
2013-05-23 21:42:00,48.0,40.0,-100.00,WSW,255,3.0,5.0,73,-99.99,,,-99.99,,2013-05-24 05:42:00,
2013-05-23 21:52:00,48.0,40.0,-100.00,West,265,1.0,4.0,73,-99.99,,,-99.99,,2013-05-24 05:52:00,
2013-05-23 22:01:00,48.0,40.0,-100.00,West,265,1.0,4.0,73,-99.99,,,-99.99,,2013-05-24 06:01:00,
2013-05-23 22:12:00,48.0,40.0,-100.00,West,265,1.0,4.0,73,-99.99,,,-99.99,,2013-05-24 06:12:00,
2013-05-23 22:21:00,47.0,39.0,-100.00,WNW,290,1.0,2.0,74,-99.99,,,-99.99,,2013-05-24 06:21:00,
2013-05-23 22:32:00,47.0,39.0,-100.00,WNW,290,1.0,2.0,74,-99.99,,,-99.99,,2013-05-24 06:32:00,
2013-05-23 22:42:00,47.0,39.0,-100.00,WNW,290,1.0,2.0,74,-99.99,,,-99.99,,2013-05-24 06:42:00,
2013-05-23 22:52:00,45.0,39.0,-100.00,NW,310,0.0,0.0,77,-99.99,,,-99.99,,2013-05-24 06:52:00,
2013-05-23 23:01:00,45.0,39.0,-100.00,NW,310,0.0,0.0,77,-99.99,,,-99.99,,2013-05-24 07:01:00,
2013-05-23 23:11:00,45.0,39.0,-100.00,NW,310,0.0,0.0,77,-99.99,,,-99.99,,2013-05-24 07:11:00,
2013-05-23 23:22:00,43.0,38.0,-100.00,ESE,105,1.0,1.0,81,-99.99,,,-99.99,,2013-05-24 07:22:00,
2013-05-23 23:31:00,43.0,38.0,-100.00,ESE,105,1.0,1.0,81,-99.99,,,-99.99,,2013-05-24 07:31:00,
2013-05-23 23:42:00,43.0,38.0,-100.00,ESE,105,1.0,1.0,81,-99.99,,,-99.99,,2013-05-24 07:42:00,
2013-05-23 23:52:00,40.0,36.0,-100.00,ESE,105,2.0,2.0,85,-99.99,,,-99.99,,2013-05-24 07:52:00,